Location: Augustenthal
(51.7167°N, 10.2833°E)
Time: 06:44:23
(UTC+00:00)

Cosmos 1151 Rocket - Pass Details

Date: 18 May 2021
Orbit: 592 x 616 km, 82.5° (Epoch: 15 June)

Event Time Altitude Azimuth Distance (km) Brightness Sun altitude
Rises 19:47:44 0° 206° (SSW) 2,874 6.3 -5.4°
Reaches altitude 10° 19:50:02 10° 212° (SSW) 1,975 5.6 -5.7°
Maximum altitude 19:54:14 45° 286° (WNW) 843 4.3 -6.2°
Drops below altitude 10° 19:58:29 10° 0° (N) 1,992 6.4 -6.7°
Sets 20:00:49 0° 7° (N) 2,902 7.1 -6.9°
